Cairns, Australia

6:30 AM AEST on December 03, 2016 (GMT +1000)
Cairns

Weather History for 94287 - November, 2013

Change the Weather History Date:

Saturday, November 23, 2013

  Actual Average Record
Temperature  
Mean Temperature 80 °F -  
Max Temperature 86 °F - - ()
Min Temperature 75 °F - - ()
Cooling Degree Days 16    
Growing Degree Days 30 (Base 50)    
Moisture  
Dew Point 75 °F    
Average Humidity 86    
Maximum Humidity 100    
Minimum Humidity 65    
Precipitation  
Precipitation 0.31 in - - ()
Sea Level Pressure  
Sea Level Pressure 29.73 in    
Wind  
Wind Speed 5 mph ()    
Max Wind Speed 17 mph    
Max Gust Speed -    
Visibility 6.6 miles    
Events Rain , Thunderstorm    
T = Trace of Precipitation, MM = Missing Value Source: Averaged Metar Reports

Daily Weather History Graph

Daily Weather History Graph

Search for Another Location

Airport or City:

Trip Planner

Search our weather history database for the weather conditions in past years. The results will help you decide how hot, cold, wet, or windy it might be!

Date:

Astronomy

Nov. 23, 2013 Rise Set
Actual Time 5:33 AM AEST 6:33 PM AEST
Civil Twilight 5:10 AM AEST 6:56 PM AEST
Nautical Twilight 4:42 AM AEST 7:24 PM AEST
Astronomical Twilight 4:14 AM AEST 7:52 PM AEST
Moon 10:53 PM AEST (11/23) 9:53 AM AEST (11/23)
Length of Visible Light 13h 46m
Length of Day
12h 59m
Waning Gibbous, 75% of the Moon is Illuminated
Nov 23
Waning Gibbous
Nov 26
Last Quarter
Dec 3
New
Dec 10
First Quarter
Dec 17
Full

Hourly Weather History & Observations

Time (AEST) Temp. Heat Index Dew Point Humidity Pressure Visibility Wind Dir Wind Speed Gust Speed Precip Events Conditions
12:00 AM 78 °F - 76 °F 91% 29.78 in - Calm Calm - -  
12:00 AM 78.8 °F - 75.2 °F 89% 29.77 in 6.2 mi Calm Calm - N/A Rain Light Rain
12:30 AM 77.0 °F - 77.0 °F 100% 29.74 in 6.2 mi West 2.3 mph - N/A Rain Light Rain
1:00 AM 77 °F - 76 °F 94% 29.75 in - WNW 6.9 mph - -  
1:00 AM 77.0 °F - 75.2 °F 94% 29.74 in 6.2 mi WNW 6.9 mph - N/A   Mostly Cloudy
1:30 AM 77.0 °F - 73.4 °F 89% 29.71 in 6.2 mi West 5.8 mph - N/A   Mostly Cloudy
2:00 AM 77.0 °F - 73.4 °F 89% 29.71 in 6.2 mi West 4.6 mph - N/A   Scattered Clouds
2:30 AM 77.0 °F - 73.4 °F 89% 29.71 in 6.2 mi West 3.5 mph - N/A   Mostly Cloudy
3:00 AM 76 °F - 74 °F 90% 29.72 in - West 4.6 mph - -  
3:00 AM 77.0 °F - 73.4 °F 89% 29.71 in 6.2 mi West 4.6 mph - N/A   Mostly Cloudy
3:30 AM 77.0 °F - 75.2 °F 94% 29.71 in 6.2 mi WSW 1.2 mph - N/A   Mostly Cloudy
4:00 AM 76 °F - 74 °F 94% 29.73 in - SSE 11.5 mph - -  
4:00 AM 77.0 °F - 75.2 °F 94% 29.71 in 6.2 mi SSE 11.5 mph - N/A   Mostly Cloudy
4:30 AM 77.0 °F - 73.4 °F 89% 29.71 in 6.2 mi South 3.5 mph - N/A   Mostly Cloudy
5:00 AM 77.0 °F - 75.2 °F 94% 29.74 in 6.2 mi Calm Calm - N/A   Mostly Cloudy
5:30 AM 77.0 °F - 75.2 °F 94% 29.74 in 6.2 mi Calm Calm - N/A   Mostly Cloudy
6:00 AM 76 °F - 75 °F 95% 29.75 in - Calm Calm - -  
6:00 AM 77.0 °F - 75.2 °F 94% 29.74 in 6.2 mi Calm Calm - N/A   Mostly Cloudy
6:30 AM 77.0 °F - 75.2 °F 94% 29.77 in 6.2 mi WSW 1.2 mph - N/A   Mostly Cloudy
7:00 AM 79 °F - 74 °F 82% 29.78 in - Calm Calm - -  
7:00 AM 78.8 °F - 75.2 °F 89% 29.77 in 6.2 mi Calm Calm - N/A   Mostly Cloudy
7:30 AM 80.6 °F 85.4 °F 73.4 °F 79% 29.74 in 6.2 mi West 2.3 mph - N/A   Mostly Cloudy
8:00 AM 82.4 °F 89.5 °F 75.2 °F 79% 29.77 in 6.2 mi NW 3.5 mph - N/A   Scattered Clouds
8:30 AM 82.4 °F 88.2 °F 73.4 °F 74% 29.77 in 6.2 mi NW 5.8 mph - N/A   Scattered Clouds
9:00 AM 83 °F - 73 °F 66% 29.78 in 19 mi NNE 8.1 mph - -   Partly Cloudy
9:00 AM 82.4 °F 88.2 °F 73.4 °F 74% 29.77 in 6.2 mi NNE 8.1 mph - N/A   Scattered Clouds
9:30 AM 84.2 °F 90.9 °F 73.4 °F 70% 29.77 in 6.2 mi North 5.8 mph - N/A   Partly Cloudy
10:00 AM 85 °F - 75 °F 65% 29.77 in - NNE 9.2 mph - -  
10:00 AM 86.0 °F 95.1 °F 75.2 °F 70% 29.77 in 6.2 mi NNE 9.2 mph - N/A   Partly Cloudy
10:30 AM 84.2 °F 92.3 °F 75.2 °F 74% 29.74 in 6.2 mi North 11.5 mph - N/A   Partly Cloudy
11:00 AM 86.0 °F 96.9 °F 77.0 °F 74% 29.74 in 6.2 mi NNE 12.7 mph - N/A   Partly Cloudy
11:30 AM 84.2 °F 92.3 °F 75.2 °F 74% 29.71 in 6.2 mi North 11.5 mph - N/A   Partly Cloudy
12:00 PM 84 °F - 76 °F 70% 29.72 in - North 12.7 mph - -  
12:00 PM 84.2 °F 92.3 °F 75.2 °F 74% 29.71 in 6.2 mi North 12.7 mph - N/A   Partly Cloudy
12:30 PM 86.0 °F 96.9 °F 77.0 °F 74% 29.71 in 6.2 mi North 16.1 mph - N/A   Partly Cloudy
1:00 PM 85 °F - 76 °F 68% 29.71 in - North 17.3 mph - -  
1:00 PM 84.2 °F 94.1 °F 77.0 °F 79% 29.68 in 6.2 mi North 17.3 mph - N/A   Partly Cloudy
1:30 PM 82.4 °F 89.5 °F 75.2 °F 79% 29.68 in 6.2 mi North 13.8 mph - N/A   Scattered Clouds
2:00 PM 82.4 °F 90.9 °F 77.0 °F 84% 29.68 in 6.2 mi North 12.7 mph - N/A Rain Light Rain Showers
3:00 PM 83 °F - 77 °F 76% 29.69 in 19 mi North 12.7 mph - - Thunderstorm Thunderstorm
3:00 PM 82.4 °F 90.9 °F 77.0 °F 84% 29.68 in 6.2 mi North 12.7 mph - N/A Rain Light Rain Showers
3:30 PM 82.4 °F 89.5 °F 75.2 °F 79% 29.68 in 6.2 mi North 13.8 mph - N/A Rain Light Rain Showers
4:00 PM 82 °F - 75 °F 73% 29.68 in - North 12.7 mph - -  
4:00 PM 82.4 °F 89.5 °F 75.2 °F 79% 29.68 in 6.2 mi North 12.7 mph - N/A Rain Light Rain Showers
4:30 PM 82.4 °F 89.5 °F 75.2 °F 79% 29.68 in 6.2 mi North 10.4 mph - N/A Rain Light Rain Showers
5:00 PM 78.8 °F - 77.0 °F 94% 29.68 in 4.3 mi NW 8.1 mph - N/A Rain Rain Showers
5:30 PM 78.8 °F - 77.0 °F 94% 29.68 in 3.1 mi West 8.1 mph - N/A Rain Rain
6:00 PM 78 °F - 76 °F 91% 29.69 in 6 mi West 3.5 mph - -   Overcast
6:00 PM 78.8 °F - 75.2 °F 89% 29.68 in 5.0 mi WSW 3.5 mph - N/A Rain Light Rain
6:30 PM 77.0 °F - 75.2 °F 94% 29.68 in 6.2 mi WNW 4.6 mph - N/A Rain Light Rain
7:00 PM 78 °F - 75 °F 88% 29.71 in - WNW 6.9 mph - -  
7:00 PM 77.0 °F - 75.2 °F 94% 29.71 in 6.2 mi WNW 6.9 mph - N/A Rain Light Rain Showers
7:30 PM 78.8 °F - 73.4 °F 83% 29.71 in 6.2 mi West 5.8 mph - N/A   Mostly Cloudy
8:00 PM 78.8 °F - 75.2 °F 89% 29.74 in 6.2 mi West 1.2 mph - N/A   Mostly Cloudy
8:30 PM 77.0 °F - 75.2 °F 94% 29.74 in 6.2 mi South 1.2 mph - N/A   Mostly Cloudy
9:00 PM 78 °F - 76 °F 92% 29.75 in - Calm Calm - -   Overcast
9:00 PM 78.8 °F - 77.0 °F 94% 29.74 in 6.2 mi Calm Calm - N/A Rain Light Rain Showers
9:30 PM 77.0 °F - 77.0 °F 100% 29.74 in 6.2 mi SSE 4.6 mph - N/A Rain Light Rain Showers
10:00 PM 78 °F - 76 °F 94% 29.76 in - Calm Calm - -  
10:00 PM 77.0 °F - 77.0 °F 100% 29.74 in 6.2 mi Calm Calm - N/A   Mostly Cloudy
10:30 PM 77.0 °F - 75.2 °F 94% 29.74 in 6.2 mi Calm Calm - N/A   Mostly Cloudy
11:00 PM 77.0 °F - 77.0 °F 100% 29.74 in 6.2 mi Calm Calm - N/A   Mostly Cloudy
11:30 PM 77.0 °F - 75.2 °F 94% 29.74 in 6.2 mi WSW 2.3 mph - N/A   Mostly Cloudy